"Pseudo-MPEC" for A11tNDG

Created 2025 Oct 16 10:35:04 UT using Find_Orb

Click here for an explanation of pseudo-MPECs

 
 Astrometry: 
     A11tNDG* C2025 10 14.10315304 16 20.194+20 07 01.20   ~AE6o 18.57wVNEOCPR17
     A11tNDG  C2025 10 14.11729704 16 04.913+20 05 34.62   ~AE6o 18.74wVNEOCPR17
     A11tNDG  C2025 10 14.13143804 15 49.610+20 04 08.51   ~AE6o 18.58wVNEOCPR17
     A11tNDG  C2025 10 14.14559804 15 34.390+20 02 41.64   ~AE6o 18.91wVNEOCPR17
     A11tNDG KC2025 10 14.87758604 04 07.46 +18 50 40.0    ~AEM5 18.5 GVNEOCPL01
     A11tNDG KC2025 10 14.87858204 04 06.54 +18 50 34.8    ~AEM5 18.8 GVNEOCPL01
     A11tNDG KC2025 10 14.88058704 04 04.79 +18 50 24.3    ~AEM5 18.4 GVNEOCPL01
     A11tNDG KC2025 10 14.88160504 04 03.88 +18 50 18.6    ~AEM5 18.5 GVNEOCPL01
     A11tNDG KC2025 10 14.88261304 04 03.00 +18 50 13.4    ~AEM5 18.6 GVNEOCPL01
     A11tNDG KC2025 10 14.94314804 03 09.52 +18 44 50.9    ~AENK 18.7 GVNEOCP104
     A11tNDG KC2025 10 14.94546904 03 07.44 +18 44 38.5    ~AENK 18.7 GVNEOCP104
     A11tNDG KC2025 10 14.94778904 03 05.38 +18 44 26.2    ~AENK 18.3 GVNEOCP104
     A11tNDG KB2025 10 14.96329804 02 52.42 +18 42 59.1    ~AENZ 18.7 GVNEOCPI93
     A11tNDG KB2025 10 14.96581504 02 50.20 +18 42 45.9    ~AENZ 18.7 GVNEOCPI93
     A11tNDG KB2025 10 14.96832504 02 48.00 +18 42 32.5    ~AENZ       VNEOCPI93
     A11tNDG KC2025 10 15.14554 04 00 10.79 +18 26 40.0    ~AF45 18.9 VZNEOCPL04
     A11tNDG KC2025 10 15.14666 04 00 09.82 +18 26 33.9    ~AF45 18.9 VZNEOCPL04
     A11tNDG KC2025 10 15.14788 04 00 08.78 +18 26 27.8    ~AF45 18.9 VZNEOCPL04
     A11tNDG KB2025 10 15.17559 03 59 55.36 +18 24 08.1    ~AF4o       XNEOCPW13
     A11tNDG KB2025 10 15.17924 03 59 52.35 +18 23 50.5    ~AF4o 17.5 GXNEOCPW13
     A11tNDG KB2025 10 15.18289 03 59 49.22 +18 23 30.8    ~AF4o 17.5 GXNEOCPW13
     A11tNDG KC2025 10 15.24007 03 58 59.94 +18 18 38.3    ~AF6Z 18.8 GXNEOCPW62
     A11tNDG KC2025 10 15.24687 03 58 54.20 +18 18 03.3    ~AF6Z 18.8 GXNEOCPW62
     A11tNDG KC2025 10 15.25357 03 58 48.54 +18 17 28.8    ~AF6Z 18.9 GXNEOCPW62
     A11tNDG KB2025 10 15.26111 03 58 45.701+18 16 57.58   ~AFAK 18.4 GWNEOCPV21
     A11tNDG KB2025 10 15.27081 03 58 37.613+18 16 08.29   ~AFAK 18.6 GWNEOCPV21
     A11tNDG KC2025 10 15.27274303 58 33.66 +18 15 50.7    ~AF7K 18.7 GVNEOCPH21
     A11tNDG KC2025 10 15.27553903 58 31.33 +18 15 36.4    ~AF7K 18.7 GVNEOCPH21
     A11tNDG KC2025 10 15.27833403 58 28.96 +18 15 22.1    ~AF7K 18.7 GVNEOCPH21
     A11tNDG KB2025 10 15.28047 03 58 29.558+18 15 19.37   ~AFAK 18.5 GWNEOCPV21
     A11tNDG KC2025 10 15.28113103 58 26.62 +18 15 07.8    ~AF7K 18.7 GVNEOCPH21
     A11tNDG KB2025 10 15.30216 03 58 11.441+18 13 30.14   ~AFAK 18.7 GWNEOCPV21
     A11tNDG KB2025 10 15.31181 03 58 03.379+18 12 41.18   ~AFAK 18.7 GWNEOCPV21
     A11tNDG KB2025 10 15.32145 03 57 55.356+18 11 52.19   ~AFAK 18.4 GWNEOCPV21
     A11tNDG KB2025 10 15.85979503 51 09.69 +17 26 58.1    ~AFL5 18.8 GXNEOCPL76
     A11tNDG KB2025 10 15.86152203 51 08.44 +17 26 49.8    ~AFL5 18.6 GXNEOCPL76
     A11tNDG KB2025 10 15.86324503 51 07.18 +17 26 42.0    ~AFL5 18.3 GXNEOCPL76
     A11tNDG KB2025 10 15.86497103 51 05.85 +17 26 33.9    ~AFL5 18.5 GXNEOCPL76
     A11tNDG KB2025 10 15.86617803 51 06.773+17 26 21.92   ~AFLZ 18.77GXNEOCP126
     A11tNDG KB2025 10 15.86670203 51 04.61 +17 26 25.4    ~AFL5 18.8 GXNEOCPL76
     A11tNDG KB2025 10 15.86842803 51 03.33 +17 26 17.4    ~AFLK 18.3 GXNEOCPL76
     A11tNDG KB2025 10 15.87015603 51 02.04 +17 26 09.4    ~AFLK 18.1 GXNEOCPL76
     A11tNDG KB2025 10 15.87188503 51 00.76 +17 26 01.7    ~AFLK 18.2 GXNEOCPL76
     A11tNDG KB2025 10 15.87360903 50 59.51 +17 25 53.8    ~AFLK 18.8 GXNEOCPL76
     A11tNDG KB2025 10 15.87533303 50 58.19 +17 25 45.4    ~AFLK 18.6 GXNEOCPL76
     A11tNDG KB2025 10 15.87570103 50 59.819+17 25 38.54   ~AFLZ 18.75GXNEOCP126
     A11tNDG KC2025 10 15.87719 03 50 58.706+17 25 31.51   ~AFMo 17.1 GVNEOCPD63
     A11tNDG KC2025 10 15.88707 03 50 51.554+17 24 46.58   ~AFMo 17.4 GVNEOCPD63
     A11tNDG KB2025 10 15.92916103 50 20.501+17 21 24.59   ~AG05 20.0 VZNEOCPK74
     A11tNDG KB2025 10 15.93734603 50 14.585+17 20 47.51   ~AG05 18.5 VZNEOCPK74
     A11tNDG KB2025 10 15.97710 03 49 46.24 +17 17 54.4    ~AG0K 18.9 GXNEOCPM54
     A11tNDG KB2025 10 15.98512 03 49 40.42 +17 17 17.5    ~AG0K 17.5 GXNEOCPM54
     A11tNDG KB2025 10 15.99303 03 49 34.66 +17 16 41.0    ~AG0K 18.2 GXNEOCPM54
     A11tNDG |C2025 10 16.24306003 46 43.740+16 59 48.70   ~AG6o 18.7 GVNEOCP807
     A11tNDG |C2025 10 16.24829003 46 40.070+16 59 25.60   ~AG6o 19.0 GVNEOCP807
     A11tNDG |C2025 10 16.25351003 46 36.400+16 59 02.40   ~AG6o 18.8 GVNEOCP807

Station data:
(104) San Marcello Pistoiese  (N44.064178 E10.803750)  Italy.  Observers P.
   Bacci, M. Maestripieri. Measurers P. Bacci, L. Tesi, G. Fagioli. 0.60-m
   reflector + CCD.
(126) Monte Viseggi  (N44.132565 E9.790150)  Italy.
   Observers L. Sannino, A. Mancuso, S. Mercanti, D. Agnetti. Measurers L.
   Sannino, A. Mancuso. 0.41-m f/5.3 reflector + CCD.
(807) Cerro Tololo Observatory, La Serena  (S30.169133 W70.805900)  Chile.
   Observer R. Holmes. 0.61-m f/6.5 astrograph + CCD.
(D63) G. Pascoli Observatory, Barga (since June 2023)  (N44.081324
   E10.461380)  Italy.  Observer R. Bacci. 0.41-m f/3.75 reflector + CCD.
(H21) Astronomical Research Observatory, Westfield  (N39.483054 W87.968270)
   US/Illinois.  Observer R. Holmes. Measurers S. Foglia, L. Buzzi, T.
   Linder, R. Holmes. 0.40-m f/5.32 astrograph + CCD.
(I93) St Pardon de Conques  (N44.558670 W0.202960)  France.  Observers F.
   Losse, W. D'Anna. Measurer F. Losse. 0.40-m f/3.7 reflector + CCD.
(K74) Muensterschwarzach Observatory, Schwarzach  (N49.805276 E10.236400)
   Germany.  Observer C. Gerhard. 0.30-m f/3.75 Newtonian reflector + CCD.
(L01) Višnjan Observatory, Tičan  (N45.290897 E13.749300)  Croatia.
   Observers K. Korlević, L. Poropat. Measurer K. Korlevic. 1.0-m f/2.9
   reflector + CCD.
(L04) ROASTERR-1 Observatory, Cluj-Napoca  (N46.820952 E23.596400)  Romania.
   Observer L. Hudin. 0.1-m f/9 refractor + CCD.
(L76) Nomad Observatory, Kochevanchik  (N46.976193 E39.651610)  Russia.
   Observer E. Romas. 0.2-m f/5 reflector + CCD.
(M54) Observatoire Albireo de Biot  (N43.617354 E7.077810)  France.
   Observers J.-M. Mari, C. Jasicki. Measurer J.-M. Mari. 0.25-m f/4.5
   reflector + CMO.
(R17) ATLAS-TDO  (N28.298778 W16.510310)  Canary Islands (Spain).  Observers
   L. Denneau, R. Siverd, J. Tonry, H. Weiland, J. Licandro, M. Alarcon.
   Measurers L. Denneau, N. Erasmus, A. Fitzsimmons, J. Robinson, R. Siverd,
   J. Tonry, H. Weiland, J. Licandro, M. Alarcon. 0.56-m f/2.2 Astrograph +
   CMOS.
(V21) Cewanee Observatory at DSNM  (N31.946619 W108.897690)  US/New Mexico.
   Observer D. T. Durig. 0.4-m f/8 Ritchey-Chrétien + 4656x3520 CCD.
(W13) Star Quarry Observatory, Bedford  (N38.977039 W86.526390)  US/Indiana.
   Observer C. J. Horowitz. 0.20-m f/2 Schmidt-Cassegrain + CMO.
(W62) Comet Hunter Observatory2, New Ringgold  (N40.745185 W75.862390)
   US/Pennsylvania.  Observer J. Maikner. 0.30-m f/3.8 Riccardi-Honders + CCD.

Orbital elements:  A11tNDG
   Perihelion 2025 Aug 26.120906 +/- 0.0182 TT =  2:54:06.2 (JD 2460913.620906)
Epoch 2025 Oct 16.0 TT = JDT 2460964.5   Earth MOID: 0.0055   Ve: 0.0947
M  18.666564724 +/- 0.057           Ma: 0.0375                   AutoNEOCP
n   0.366880840 +/- 0.000998        Peri.  108.553068 +/- 0.007
a   1.932499370 +/- 0.0035          Node   202.139462 +/- 0.0031
e   0.60125199 +/- 0.000844         Incl.    3.984685 +/- 0.0048
P   2.686/981.226d         H 22.79  G  0.15   U  8.1
q 0.770580269 +/- 0.000236    Q 3.094418470 +/- 0.00724   (J2000 ecliptic)
From 56 observations 2025 Oct. 14-16; mean residual 0".25
Residuals in arcseconds: 
251014 R17  .13-  .00     251015 W13  .68+  .83+    251015 126  .25+  .35-    
251014 R17  .17+  .20-    251015 W13  .14-  .23-    251015 L76  .07+  .25-    
251014 R17  .30-  .19+    251015 W62  .06-  .11-    251015 L76  .01+  .23-    
251014 R17  .17+  .09+    251015 W62  .06+  .14-    251015 L76  .17-  .21-    
251014 L01  .07+  .00     251015 W62  .07+  .17-    251015 L76  .19-  .12+    
251014 L01  .44-  .13+    251015 V21  .20-  .43+    251015 L76  .15+  .23+    
251014 L01  .01-  .35+    251015 V21  .08-  .10+    251015 L76  .50-  .17-    
251014 L01  .10-  .09+    251015 H21  .01-  .06+    251015 126  .38-  .00     
251014 L01  .11+  .28+    251015 H21  .28+  .06+    251015 D63  .54-  .53-    
251014 104  .07+  .19-    251015 H21  .02-  .06+    251015 D63  .13-  .12-    
251014 104  .20-  .23-    251015 V21  .09+  .05-    251015 K74  .08-  .23-    
251014 104  .21-  .17-    251015 H21  .13+  .08+    251015 K74  .35+  .28+    
251014 I93  .01-  .04+    251015 V21  .13+  .29+    251015 M54  .27-  .37+    
251014 I93  .01-  .19+    251015 V21  .13+  .12+    251015 M54  .01+  .19+    
251014 I93  .19+  .10+    251015 V21  .54+  .10-    251015 M54  .03-  .09-    
251015 L04  .19+  .53-    251015 L76  .29-  .38+    251016 807  .11+  .01+    
251015 L04  .02-  .58-    251015 L76  .09+  .10+    251016 807  .25+  .16+    
251015 L04  .02-  .09-    251015 L76  .28+  .30+    251016 807  .26+  .17+    
251015 W13  .20-  .21-    251015 L76  .49-  .21+    

Ephemerides (geocentric):
Date (UTC) HH   RA             Dec           delta  r     elong  mag " sig PA
---- --------  ------------   ------------  ------ ------ -----  --- --------
2025 10 16 11  03 44 21.999   +16 42 41.86  .08316 1.0662 145.2 18.9 .086 119
2025 10 16 12  03 43 55.543   +16 39 41.76  .08348 1.0666 145.4 18.9 .086 118
2025 10 16 13  03 43 29.290   +16 36 42.80  .08379 1.0670 145.5 18.9 .087 117
2025 10 16 14  03 43 03.240   +16 33 44.96  .08411 1.0674 145.7 18.9 .087 117
2025 10 16 15  03 42 37.388   +16 30 48.23  .08443 1.0677 145.8 18.9 .088 116
2025 10 16 16  03 42 11.733   +16 27 52.61  .08474 1.0681 146.0 18.9 .088 115
2025 10 16 17  03 41 46.274   +16 24 58.08  .08506 1.0685 146.1 18.9 .089 115
